Theta_e
351 351 352 352 351 348 347 344 336 336 336 334 334 334 336 335 333 333 335 336 336 337 337 336 337 337 335 334 334 333 331 330 330 326 326 327 326 327 327 328 327 326 324
351 352 352 349 349 348 348 337 327 330 330 333 333 333 334 334 336 335 337 335 336 336 336 337 336 336 335 334 334 333 332 331 330 329 328 328 328 328 328 328 327 325 324
352 352 351 348 348 349 348 333 334 331 335 335 333 333 334 333 335 337 334 336 336 335 335 336 336 336 336 334 333 332 330 331 330 329 327 326 327 327 327 327 327 326 325
352 353 351 347 346 344 337 333 332 335 335 335 334 332 333 332 334 335 334 334 336 335 334 335 333 335 335 332 332 332 331 331 329 329 328 327 326 326 326 326 325 324 324
353 354 351 348 345 340 337 334 332 330 328 330 330 330 329 333 334 332 333 336 338 337 336 335 335 332 329 329 329 329 330 329 328 327 327 327 326 326 325 325 325 324 323
354 354 351 348 343 340 337 334 333 331 331 331 330 333 331 332 333 331 332 337 337 337 336 335 331 331 329 326 325 322 324 327 327 327 327 327 327 325 324 324 323 322 323
354 353 350 347 343 341 338 335 334 331 335 330 332 335 335 334 333 332 333 334 335 336 336 332 331 331 328 328 325 323 324 323 323 326 325 325 324 323 322 321 320 321 321
353 352 350 346 344 342 339 335 335 333 331 332 335 334 329 335 334 333 334 332 332 332 329 331 332 331 330 325 325 325 326 325 324 322 321 321 320 319 318 318 317 318 318
353 352 349 345 345 342 340 337 334 333 335 338 336 332 332 337 335 333 328 329 334 333 332 330 329 328 324 322 323 324 324 323 322 318 316 316 315 315 315 315 316 319 320
352 351 348 346 345 343 340 337 337 337 337 336 336 334 335 335 332 330 326 329 333 331 331 328 326 323 323 321 321 323 322 322 319 317 317 316 316 316 315 317 317 317 318
350 349 348 345 343 339 338 338 339 338 336 335 335 336 335 332 330 326 328 332 331 330 330 328 326 322 320 319 319 320 319 315 315 315 315 315 316 316 316 317 317 317 317
346 346 344 343 342 340 338 338 337 337 337 336 336 336 333 333 327 329 331 329 328 328 328 326 323 318 317 317 316 315 313 311 313 314 314 314 314 313 313 313 313 315 317
344 343 342 343 342 342 341 340 338 338 335 335 334 330 331 331 330 330 326 326 326 325 323 320 317 315 314 315 313 313 311 312 312 312 311 310 309 309 310 309 310 314 316
342 342 342 342 341 340 338 337 335 333 332 332 332 334 333 330 327 324 323 323 321 319 318 318 316 316 315 314 313 311 310 309 308 308 307 307 306 307 306 307 309 314 314
341 340 341 341 339 332 331 331 332 331 331 332 333 333 332 330 327 324 323 321 320 318 317 318 318 317 317 315 312 310 308 307 306 306 305 305 304 304 304 305 310 314 315
337 336 336 333 329 327 325 324 326 325 327 329 329 327 324 324 323 321 319 317 316 314 315 318 318 317 315 312 310 308 307 305 305 303 303 303 303 303 303 305 311 314 315
337 336 333 332 329 327 326 326 325 318 322 323 322 322 321 321 319 316 314 314 314 312 315 315 315 313 311 308 306 305 304 303 302 302 302 302 302 302 303 306 310 309 312
336 332 334 331 329 326 326 326 326 326 324 317 316 317 316 314 314 313 313 313 313 312 314 314 312 309 306 305 304 303 301 300 300 301 301 301 301 301 303 304 307 307 309
331 330 329 329 329 328 324 326 326 325 323 319 314 313 313 313 312 311 311 313 313 312 311 309 307 305 305 304 302 300 298 299 299 300 300 300 300 301 302 303 306 307 308
330 327 327 330 328 328 326 326 325 324 321 319 318 317 313 311 313 313 312 311 310 309 308 307 305 304 304 301 299 297 297 300 300 299 299 299 300 300 301 302 303 307 307
331 330 328 329 328 327 327 326 325 323 322 321 320 318 315 316 316 314 312 310 309 308 308 307 305 304 301 298 297 298 299 299 298 298 298 299 299 300 300 301 302 304 306
327 326 327 328 328 326 326 325 325 324 323 322 321 316 314 315 315 313 311 310 309 308 307 306 303 300 297 296 296 298 298 298 297 297 297 298 299 299 300 300 301 302 303
325 325 327 327 327 325 323 325 324 323 322 322 321 318 314 314 312 312 310 309 308 307 306 303 300 298 295 293 294 296 297 297 296 295 296 297 298 298 299 300 301 301 301
326 326 326 325 325 325 325 325 323 321 321 321 319 317 315 313 314 312 310 309 308 307 304 301 299 296 294 292 293 294 294 295 295 295 295 296 297 298 298 299 300 300 301
324 324 324 324 324 324 323 322 321 321 320 320 319 318 317 316 315 311 309 308 307 305 303 300 298 295 293 291 291 291 292 293 294 293 295 296 297 298 298 298 299 300 300
320 321 321 319 319 320 320 320 319 319 319 318 318 316 315 315 315 314 310 308 306 304 302 300 297 295 293 292 292 292 290 290 293 293 293 296 297 297 297 297 298 298 299
Wind_Speed
34 34 32 28 31 34 28 26 26 25 24 22 21 18 15 14 14 13 14 12 12 12 12 13 13 12 13 12 13 13 14 13 16 23 19 16 18 19 18 17 20 20 20
36 32 32 32 39 32 31 33 26 25 23 21 19 18 16 15 13 14 14 13 14 13 12 11 13 11 13 13 13 15 16 16 18 21 25 23 21 21 20 20 21 21 21
30 31 29 31 40 43 36 19 12 19 16 18 18 18 18 18 17 17 17 15 15 14 12 12 14 13 15 15 14 14 16 16 17 18 23 23 22 20 21 22 22 23 23
30 31 30 34 39 29 23 27 23 18 6 19 19 19 20 21 20 17 15 16 16 16 15 15 18 15 16 16 13 14 14 17 17 17 19 22 21 19 18 22 24 23 26
29 29 29 23 22 23 30 35 32 28 26 28 25 25 24 23 20 20 17 16 16 17 16 17 18 18 18 18 13 14 14 16 16 19 20 21 21 19 20 23 26 27 27
27 27 23 22 25 28 29 37 37 31 26 32 32 33 27 26 24 23 21 15 18 18 18 19 18 19 19 19 17 17 16 16 18 19 20 19 21 21 23 24 26 28 21
24 21 21 23 25 30 33 35 32 35 28 41 41 33 30 29 26 24 21 20 21 20 17 20 21 15 17 14 15 15 16 17 15 14 15 16 21 24 24 26 25 27 29
18 19 20 24 27 29 33 35 31 32 44 39 36 34 31 26 28 23 18 17 21 24 21 18 17 18 11 12 12 14 13 10 9 11 13 16 20 23 24 23 27 29 30
15 16 19 22 24 28 34 32 27 26 26 28 25 24 25 22 26 20 19 20 18 23 20 17 14 12 13 14 11 11 11 12 12 16 19 22 26 27 22 20 21 20 23
17 19 20 22 25 27 27 25 23 23 22 19 17 21 23 23 24 28 24 17 15 19 16 12 11 11 13 14 11 10 11 11 12 17 19 21 20 20 20 14 18 20 22
15 15 19 20 23 27 28 27 20 18 24 28 28 28 27 24 22 22 21 16 14 16 14 8 6 10 10 12 10 7 7 12 15 16 19 19 18 18 17 15 18 20 24
18 19 20 22 26 28 29 22 20 25 25 27 24 22 19 13 20 17 17 12 13 12 10 7 5 7 8 8 5 9 10 13 13 16 16 16 17 19 20 21 24 24 25
15 16 18 20 21 23 24 23 23 22 19 12 16 15 15 9 7 8 7 9 12 9 6 6 7 9 9 6 8 9 11 10 12 13 14 16 17 20 22 22 24 25 26
18 18 18 20 22 20 18 18 17 15 11 10 11 8 8 8 6 5 6 8 9 5 5 3 5 6 6 5 5 7 8 8 9 11 14 17 18 20 22 22 24 25 27
15 17 18 14 14 14 13 11 8 7 11 12 11 10 10 8 8 10 9 6 6 6 3 3 3 3 4 5 7 7 7 7 9 11 13 16 19 20 22 22 22 24 20
13 12 12 12 10 10 11 9 8 8 10 9 8 7 7 7 7 7 6 6 6 5 3 5 4 5 6 7 7 5 5 7 9 11 13 15 17 19 21 22 20 21 20
10 10 8 9 9 8 7 6 7 7 7 7 8 8 8 8 7 6 4 3 6 5 6 5 6 7 7 6 4 4 6 8 10 10 12 14 16 18 20 20 19 20 22
4 6 6 6 6 5 5 6 8 9 9 9 11 11 9 9 7 5 4 4 3 2 3 5 7 6 5 3 3 5 7 8 9 10 11 12 15 17 19 19 19 18 21
4 3 3 2 3 6 9 9 10 9 10 11 10 10 10 9 6 5 4 2 3 5 5 6 5 4 2 2 4 5 6 6 7 9 10 12 14 16 18 19 19 20 20
2 4 4 5 5 7 8 9 9 9 11 10 11 10 12 11 8 7 5 3 2 2 3 3 3 2 1 2 4 5 4 4 5 7 9 11 14 15 17 19 19 18 19
3 3 4 3 5 5 5 8 10 11 10 11 10 12 15 11 7 6 4 2 3 3 4 4 3 2 2 3 3 2 2 3 5 7 9 11 13 15 17 17 18 17 17
5 3 3 4 5 6 7 7 8 8 8 10 10 10 13 8 6 5 4 5 4 4 4 4 3 1 2 2 1 0 2 3 5 7 8 10 12 13 15 17 17 18 17
5 5 4 4 4 5 5 6 8 8 8 8 9 10 12 10 7 7 6 5 5 5 5 5 3 1 1 1 2 2 1 3 4 6 8 10 11 13 13 15 16 18 18
4 4 4 5 5 6 7 7 7 7 7 7 8 10 10 9 9 9 8 6 5 6 6 6 4 3 3 4 4 4 3 2 4 6 7 9 10 11 11 12 13 15 15
3 3 4 4 5 6 7 7 8 8 8 8 8 8 8 9 9 9 9 9 8 8 8 7 5 5 5 6 5 5 6 4 3 4 5 7 7 9 10 10 12 12 15
3 3 3 2 3 4 6 8 8 8 9 8 9 9 9 9 10 11 12 12 11 10 10 10 8 7 7 6 5 5 4 4 3 2 3 5 5 7 8 9 11 10 12
Wind_Direction
213 214 213 211 216 227 220 217 228 204 212 210 210 211 213 221 231 235 242 248 246 250 249 244 248 252 260 259 258 254 255 252 267 292 291 279 283 290 293 290 291 290 292
213 211 214 212 221 216 218 216 211 228 205 209 216 218 225 228 234 242 247 250 250 249 252 253 259 258 260 262 259 262 258 254 258 270 290 291 281 286 291 290 293 287 286
210 214 213 214 216 221 218 201 214 206 232 220 223 231 229 239 241 245 247 252 254 254 256 259 266 268 267 264 256 260 265 268 260 262 277 288 289 288 291 292 289 290 290
214 215 213 212 217 206 185 190 185 209 196 265 240 230 239 245 244 246 243 248 255 261 263 263 272 263 263 263 260 261 272 274 277 267 274 285 287 291 292 291 291 292 292
213 214 217 213 206 189 187 189 179 180 174 235 246 240 229 237 247 241 241 249 257 264 267 273 271 267 266 264 265 275 276 279 283 287 281 285 288 298 299 299 295 295 292
211 216 213 202 189 185 180 184 181 182 195 231 239 247 239 238 242 245 245 250 260 267 270 274 281 274 267 267 274 280 276 276 281 285 287 291 296 297 300 300 300 297 296
211 211 204 196 194 189 185 179 184 186 213 214 237 241 247 243 244 249 256 261 271 268 268 280 282 268 271 269 276 285 290 293 282 271 281 287 297 300 302 300 294 290 287
204 203 199 195 195 190 187 183 185 199 205 208 225 230 238 247 246 245 258 283 284 279 276 273 267 270 264 271 282 286 287 285 275 277 282 291 295 296 295 291 289 287 285
197 198 199 201 197 193 191 186 193 198 217 220 220 227 244 248 241 237 249 281 287 280 276 270 258 266 275 284 279 281 287 285 288 302 305 305 304 303 303 297 290 288 288
192 193 198 195 196 197 195 191 191 210 219 204 211 237 240 236 228 234 243 259 275 274 272 260 262 263 272 280 277 275 282 298 309 308 310 309 304 300 303 293 289 281 287
180 186 184 184 194 185 188 196 202 207 198 206 213 228 231 220 235 243 249 264 251 261 256 253 249 268 275 276 272 263 284 303 308 306 308 307 304 309 311 310 299 291 287
158 170 178 179 179 179 186 197 198 199 198 198 213 217 218 225 246 253 265 260 251 244 253 252 254 277 276 268 269 273 296 306 302 303 303 305 313 316 316 313 307 300 290
153 171 173 185 185 181 180 183 186 201 202 205 191 204 216 212 228 251 241 231 227 228 237 248 271 279 270 256 273 295 308 303 299 303 310 313 316 314 313 313 313 309 304
163 175 175 182 179 178 175 182 179 185 191 210 224 188 198 191 176 184 198 207 223 229 261 294 279 250 205 231 296 305 294 289 299 306 312 314 318 321 318 320 316 314 313
166 170 174 181 175 152 148 143 174 190 211 213 204 193 194 184 182 183 180 194 213 222 256 230 237 234 256 275 286 288 290 300 311 318 317 323 322 321 320 324 320 318 313
168 174 169 161 159 155 149 142 188 204 192 193 171 171 148 134 151 169 193 226 251 260 249 254 249 244 255 270 277 289 300 314 322 321 326 326 323 322 323 324 325 327 325
174 177 168 156 162 161 155 156 150 110 133 145 147 147 144 152 162 167 182 222 242 237 239 244 240 235 242 248 267 304 321 320 318 324 328 326 325 324 327 328 329 336 332
159 161 163 166 153 165 169 173 171 161 155 145 149 143 139 149 151 139 131 107 125 193 227 234 237 232 230 248 302 317 321 320 325 327 329 330 329 330 331 334 331 332 333
120 126 168 182 190 200 187 185 178 172 168 159 150 147 157 156 154 156 155 182 238 240 226 223 219 216 220 296 307 315 322 323 324 328 331 333 334 335 336 341 336 337 339
2 287 228 195 181 173 172 173 178 176 169 168 175 177 174 171 177 178 173 177 204 224 211 199 194 213 257 300 319 326 328 325 330 334 332 333 335 337 339 342 345 343 347
235 201 183 184 185 176 174 170 173 179 187 190 191 189 187 185 178 175 159 182 208 208 206 205 205 234 293 311 318 327 334 332 335 333 330 333 336 339 341 346 348 351 355
155 161 181 202 183 170 168 176 183 192 196 192 189 189 190 189 192 176 185 213 215 209 213 212 205 255 279 283 261 273 325 331 337 333 331 333 337 343 345 348 353 355 1
207 199 185 175 177 165 178 197 199 187 193 202 197 191 192 204 197 192 199 214 210 209 205 197 197 247 253 212 199 213 289 329 332 332 332 335 341 347 349 353 358 360 3
177 189 187 173 170 180 192 191 185 193 203 207 207 206 202 206 212 206 205 211 213 211 203 200 212 226 231 210 215 226 252 297 314 324 331 336 340 349 355 2 6 8 10
179 196 205 195 183 196 185 199 205 212 210 216 212 215 225 229 224 216 218 220 215 207 204 201 212 217 225 217 220 229 243 260 300 325 336 334 340 351 2 7 10 14 19
132 139 153 172 199 221 220 215 216 218 226 226 231 239 242 238 234 228 221 217 213 209 203 204 209 207 204 201 213 232 252 248 262 313 343 334 352 2 4 12 11 19 25